{"data":{"norad_id":67845,"intl_designator":"2026-033AA","name":"STARLINK-36606","alt_names":[],"object_type":"PAYLOAD","status":"ACTIVE","operator":null,"country":"US","launch_date":"2026-02-16","launch_site_code":"AFETR","launch_vehicle":null,"mission":null,"orbit_class":"UNKNOWN","rcs_meters":null,"size_class":null,"mass_kg":null,"dimensions":null,"purposes":["comms"],"wikipedia_slug":null,"has_3d_model":false,"image_url":null,"decayed_at":null,"tle_current":{"epoch":"2026-09-19T08:14:12.569856Z","epoch_age_seconds":166426,"freshness":"FRESH","line1":"1 67845U 26033AA  26262.34320104  .00012395  00000+0  45908-3 0  9997","line2":"2 67845  42.9995 253.1416 0001276 268.7317  91.3388 15.27588478 34297","mean_motion":15.27588478,"eccentricity":0.0001276,"inclination_deg":42.9995,"raan_deg":253.1416,"arg_perigee_deg":268.7317,"mean_anomaly_deg":91.3388,"bstar":0.00045908,"rev_number":3429,"period_min":94.266225540358,"perigee_km":482.14822586853,"apogee_km":483.89919408171,"semimajor_km":6861.1607099751,"source":"CELESTRAK","updated_at":"2026-09-20T09:00:43.672182Z"}}}